Location: Palomar Mountain Lodge
(33.3110°N, 116.8495°W)
Time: 02:33:11
(UTC-08:00)

Cosmos 1553 Rocket - Pass Details

Date: 13 December 2025
Orbit: 942 x 1006 km, 82.9° (Epoch: 21 January)

Event Time Altitude Azimuth Distance (km) Brightness Sun altitude
Rises 17:45:44 0° 175° (S) 3,605 7.2 -13.2°
Reaches altitude 10° 17:48:13 10° 172° (S) 2,670 6.4 -13.7°
Maximum altitude 17:54:15 64° 92° (E) 1,061 3.9 -14.9°
Drops below altitude 10° 18:00:24 10° 13° (NNE) 2,728 6.1 -16.1°
Sets 18:02:57 0° 10° (N) 3,689 6.8 -16.7°
